Location: Mahannah Oil Field
(37.4664°N, 96.6003°W)
Time: 02:07:16
(UTC+00:00)

deb Explorer IX - Pass Details

Date: 25 January 2021
Orbit: 537 x 1102 km, 38.8° (Epoch: 25 February)

Event Time Altitude Azimuth Distance (km) Brightness Sun altitude
Rises 04:25:00 0° 284° (WNW) 3,289 - -55.5°
Reaches altitude 10° 04:27:43 10° 279° (W) 2,259 - -56.0°
Maximum altitude 04:32:45 50° 205° (SSW) 839 - -56.9°
Drops below altitude 10° 04:37:05 10° 130° (SE) 1,944 - -57.6°
Sets 04:39:17 0° 124° (SE) 2,786 - -58.0°
